Home   Weather   Växjö   Past weeks

Flag for Sweden Past Weather in Växjö, Sweden — Yesterday and Last 2 Weeks

Now
64 °F

Partly sunny.


Feels Like: 64 °F
Forecast: 56 / 69 °F
Wind: 12 mph from West

Location: Vaxjo Airport

Current Time: Aug 30, 2016 at 1:15:27 PM

Latest Report: Aug 30, 2016 at 12:20 PM


Visibility: N/A

Pressure: 30.09 "Hg

Humidity: 60%

Dew Point: 50 °F

Location of VäxjöLocation

Past Weather in Växjö — Graph

°F

Växjö Temperature Yesterday

Maximum temperature yesterday: 64 °F (at 9:50 AM)
Minimum temperature yesterday: 54 °F (at 8:20 PM)
Average temperature yesterday: 59 °F

High & Low Weather Summary for the Past Weeks

 TemperatureHumidityPressure
High82 °F (Aug 26, 3:20 PM)100% (Aug 17, 12:50 AM)30.33 "Hg (Aug 17, 12:50 AM)
Low43 °F (Aug 28, 1:50 AM)30% (Aug 15, 6:50 PM)29.65 "Hg (Aug 29, 7:50 AM)
Average60 °F81%30.01 "Hg
* Reported Aug 15 12:20 PM — Aug 30 12:20 PM, Växjö, Weather by CustomWeather, © 2016

Note: Actual official high and low records may vary slightly from our data, if they occured in-between our weather recording intervals... More about our weather records

Advertising

Växjö Weather History for the Previous 24 Hours

Scroll right to see more
 ConditionsComfort  
Time TempWeatherWind HumidityBarometerVisibility
12:20 PM
Tue, Aug 30
64 °FPartly sunny.12 mph60%30.09 "HgN/A
11:50 AM61 °FScattered clouds.10 mph68%30.09 "HgN/A
11:20 AM61 °FScattered clouds.12 mph68%30.09 "HgN/A
10:50 AM63 °FScattered clouds.13 mph64%30.09 "HgN/A
10:20 AM61 °FPassing clouds.10 mph72%30.09 "HgN/A
9:50 AM59 °FScattered clouds.9 mph77%30.09 "HgN/A
9:20 AM57 °FPartly sunny.9 mph82%30.07 "HgN/A
8:50 AM57 °FPartly sunny.9 mph82%30.07 "HgN/A
8:20 AM55 °FPassing clouds.8 mph82%30.07 "HgN/A
7:50 AM52 °FSunny.7 mph88%30.04 "Hg10 mi
7:20 AM48 °FSunny.6 mph100%30.04 "Hg10 mi
6:50 AM46 °FPassing clouds.5 mph100%30.04 "HgN/A
6:20 AM46 °FLight fog.5 mph93%30.04 "HgN/A
5:50 AM46 °FLight fog.2 mph100%30.01 "HgN/A
5:20 AM46 °FCool.3 mph100%30.01 "HgN/A
4:50 AM48 °FCool.5 mph94%29.98 "HgN/A
4:20 AM48 °FCool.6 mph100%29.98 "HgN/A
3:50 AM50 °FCool.6 mph94%29.98 "HgN/A
3:20 AM50 °FCool.6 mph94%29.98 "HgN/A
2:50 AM50 °FCool.6 mph94%29.98 "HgN/A
2:20 AM52 °FCool.7 mph88%29.95 "HgN/A
1:50 AM52 °FCool.8 mph88%29.95 "HgN/A
1:20 AM54 °FClear.9 mph88%29.95 "Hg10 mi
12:50 AM54 °FClear.8 mph82%29.92 "Hg10 mi
12:20 AM54 °FPassing clouds.8 mph82%29.92 "HgN/A
11:50 PM
Mon, Aug 29
54 °FPassing clouds.9 mph82%29.92 "HgN/A
11:20 PM55 °FPassing clouds.9 mph77%29.92 "HgN/A
10:50 PM55 °FOvercast.12 mph82%29.89 "HgN/A
10:20 PM55 °FOvercast.8 mph82%29.89 "HgN/A
9:50 PM54 °FPassing clouds.7 mph82%29.89 "HgN/A
9:20 PM54 °FPassing clouds.7 mph82%29.86 "HgN/A
8:50 PM54 °FScattered clouds.8 mph82%29.86 "HgN/A
8:20 PM54 °FPassing clouds.10 mph82%29.86 "HgN/A
7:50 PM55 °FPassing clouds.14 mph77%29.83 "HgN/A
7:20 PM55 °FPartly sunny.17 mph77%29.83 "HgN/A
6:50 PM57 °FPartly sunny.17 mph77%29.80 "HgN/A
6:20 PM57 °FPartly sunny.14 mph77%29.80 "HgN/A
5:50 PM57 °FPartly sunny.14 mph82%29.77 "HgN/A
5:20 PM57 °FBroken clouds.16 mph88%29.77 "HgN/A
4:50 PM59 °FOvercast.17 mph88%29.77 "HgN/A
4:20 PM59 °FPartly sunny.14 mph88%29.74 "HgN/A
3:50 PM59 °FBroken clouds.13 mph94%29.74 "HgN/A
3:20 PM59 °FDrizzle. Low clouds.14 mph94%29.71 "Hg3 mi
2:50 PM61 °FBroken clouds.13 mph88%29.71 "HgN/A
2:20 PM63 °FBroken clouds.14 mph83%29.68 "HgN/A
1:50 PM64 °FBroken clouds.14 mph83%29.68 "HgN/A
1:20 PM63 °FBroken clouds.12 mph88%29.68 "HgN/A
Weather by CustomWeather, © 2016

See weather overviewHow to use our weather pages